Tracking 19832 objects as of 25-Aug-2019
HD Live streaming from Space Station
objects crossing your sky now

RADUGA 1

Track RADUGA 1 now!
RADUGA 1 is classified as:


NORAD ID: 8513
Int'l Code: 1975-123A
Perigee: 35,773.3 km
Apogee: 35,814.0 km
Inclination: 8.9 °
Period: 1,436.1 minutes
Semi major axis: 42164 km
RCS: 2.5118 m2 (large)
Launch date: December 22, 1975
Source: Commonwealth of Independent States (former USSR) (CIS)
Launch site: TYURATAM MISSILE AND SPACE COMPLEX (TTMTR)
aabbcc
Your satellite tracking list
Your tracking list is empty




NASA's NSSDC Master Catalog

Two Line Element Set (TLE):
1  8513U 75123A   19236.73681802 -.00000188 +00000-0 +00000-0 0  9999
2  8513 008.9439 302.2744 0004827 201.1834 180.3499 01.00272146169861
Source of the keplerian elements: AFSPC